User: anonymous
Location: Oshawa
(43.9000°N, 78.8670°W)
Time: 19:29:10
(UTC-04:00)
Language:

Cosmos 1805 Rocket - Orbit

View from above orbital plane
View from above orbital plane
View from above satellite
View from above satellite

Ground track
Ground track

The orbit data is extracted from the following two-line orbital elements,

1 17192U 86097B   14110.03808229  .00000874  00000-0  10480-3 0  4168
2 17192 082.5060 259.3649 0015701 306.3296 192.0472 14.82897556477596
Epoch (UTC): 20 April 2014 00:54:50
Eccentricity: 0.0015701
inclination: 82.5060°
perigee height: 609 km
apogee height: 631 km
right ascension of ascending node: 259.3649°
argument of perigee: 306.3296°
revolutions per day: 14.82897556
mean anomaly at epoch: 192.0472°
orbit number at epoch: 47759

The dashed part of the orbit path shows where the satellite is in the earth's shadow,  

DLR